sat.trackr.live / text

‹ back to catalog

ANIK F2

NORAD 28378 · 2004-027A

PAYLOAD ACTIVE UNKNOWN

§ Identity

Operator
Country
CA
Launch date
2004-07-18
Launch site
FRGUI
Launch vehicle
Mass (kg)
RCS (m²)
36.63

Purposes: comms

External: N2YO · Heavens-Above · Gunter

§ Orbital elements

Epoch: 2026-09-19T21:34:32.328192Z

Period
1,436.08 min
Inclination
3.5250°
Eccentricity
0.0003079
Mean motion
1.00272669 rev/d
Perigee alt
35,773.4 km
Apogee alt
35,799.3 km
Semi-major
42,164.5 km
B*
0.0000e+0
RAAN
78.1893°
Arg perigee
84.1693°
Mean anomaly
48.9876°
Rev number
4,221

§ Raw data

ANIK F21 28378U 04027A   26262.89898528 -.00000053  00000+0  00000+0 0  99932 28378   3.5250  78.1893 0003079  84.1693  48.9876  1.00272669 42215

JSON: /api/v1/satellites/28378 · /tle

For live sub-satellite position, see the globe view (requires WebGL).

§ Visibility from observer

Set your observer location to see the next 7 days of passes ≥ 10°. The values pass through the URL so the page stays shareable.

No JS? Fill the form by hand. The geolocation button needs JavaScript.